Regional Weather Roundup
Issued by NWS

Home | Current Version | Previous Version | Graphics & Text | Print | Product List | Glossary On
Versions: 1 2 3 4 5 6 7 8 9 10 11 12 13 14 15 16 17 18 19 20 21 22 23 24 25 26 27 28 29 30 31 32 33 34 35 36 37 38 39 40 41 42 43 44 45 46 47 48 49 50
000
ASUS43 KMPX 260001
RWRMN
WEATHER ROUNDUP FOR MINNESOTA
NATIONAL WEATHER SERVICE TWIN CITIES/CHANHASSEN MN
700 PM CDT THU MAY 25 2017


NOTE: "FAIR" INDICATES FEW OR NO CLOUDS BELOW 12,000 FEET WITH NO
SIGNIFICANT WEATHER AND/OR OBSTRUCTIONS TO VISIBILITY. N/A MEANS
CURRENT SKY AND/OR WEATHER CONDITIONS ARE NOT AVAILABLE.

MNZ060>063-068>070-260100-
   Twin Cities Metro

CITY           SKY/WX    TMP DP  RH WIND       PRES   REMARKS
TWIN CITIES    PTSUNNY   69  50  50 SE8       29.65R
6HR MIN TEMP:  65; 6HR MAX TEMP:  71; 6HR PCP: TRACE;

ST PAUL        SUNNY     68  51  54 S10       29.65S
CRYSTAL        MOSUNNY   70  48  45 S12       29.63S
BLAINE         MOSUNNY   70  52  52 SE9       29.64S
LAKEVILLE      PTSUNNY   70  52  52 S8        29.65R
EDEN PRAIRIE   CLOUDY    69  49  48 S8        29.64R
6HR MIN TEMP:  67; 6HR MAX TEMP:  72;

SOUTH ST PAUL  MOSUNNY   69  48  47 S6        29.65R
LAKE ELMO      FAIR      68  52  56 SE8       29.67R
$$
MNZ001>005-007-008-013>017-022>024-027-028-260100-
   Northwest Minnesota

CITY           SKY/WX    TMP DP  RH WIND       PRES   REMARKS
BEMIDJI        CLOUDY    60  49  68 SE7       29.60S
HALLOCK        CLOUDY    64  46  52 SE20G26   29.50S
ROSEAU         CLOUDY    64  48  55 SE16G22   29.56S
WARROAD        CLOUDY    64  50  59 SE15      29.58S
CROOKSTON      CLOUDY    64  46  52 S18       29.52S
FOSSTON        CLOUDY    63  46  55 SE10G17   29.57S
DETROIT LAKES  CLOUDY    63  48  59 SE15G21   29.57S
MOORHEAD       CLOUDY    66  48  52 SE18G24   29.52S
PARK RAPIDS    LGT RAIN  65  45  48 S15       29.59S
MAHNOMEN       CLOUDY    63  48  57 SE12      29.55S
$$
MNZ006-009>011-018-025>026-260100-
   North Central Minnesota

CITY           SKY/WX    TMP DP  RH WIND       PRES   REMARKS
BAUDETTE       CLOUDY    64  46  52 S12       29.60R
FLAG ISLAND    CLOUDY    59  50  72 S16       29.56F
INTL FALLS     CLOUDY    65  44  46 SE9       29.62S
6HR MIN TEMP:  64; 6HR MAX TEMP:  70; 6HR PCP: TRACE;

WASKISH        CLOUDY    64  48  55 S6        29.61S
BIG FORK       PTSUNNY   64  46  52 S8        29.63S
LONGVILLE      CLOUDY    63  48  59 SE6       29.62F
GRAND RAPIDS   PTSUNNY   64  47  53 SE8       29.65S
CRANE LAKE     MOSUNNY   66  43  42 S7        29.67S
ORR            MOSUNNY   64  43  45 S8        29.63S
COOK           MOSUNNY   64  45  48 S7        29.66S
WALKER         CLOUDY    61  48  63 SE5       29.60F
$$
MNZ012-019>021-037-260100-
   Northeast Minnesota

CITY           SKY/WX    TMP DP  RH WIND       PRES   REMARKS
DULUTH         PTSUNNY   59  45  59 E14       29.68R
6HR MIN TEMP:  59; 6HR MAX TEMP:  65;

ELY            SUNNY     64  45  48 SE10      29.68S
HIBBING        PTSUNNY   62  46  55 SE8       29.65S
EVELETH        MOSUNNY   64  39  40 S8        29.67S
DULUTH HARBOR  MOSUNNY   48  45  87 E9        29.70S
TWO HARBORS    SUNNY     59  46  63 E9G16     29.69R
SILVER BAY     SUNNY     57  46  67 NE8       29.70S
GRAND MARAIS     N/A     51  43  74 NE6       29.71F
G MARAIS ARPRT SUNNY     59  37  44 E8        29.74S
$$
MNZ029>031-032-039>041-046>048-054>057-064-260100-
   West Central Minnesota

CITY           SKY/WX    TMP DP  RH WIND       PRES   REMARKS
FERGUS FALLS   CLOUDY    66  50  55 S17       29.53S
WHEATON        CLOUDY    63  55  77 SE5       29.54S
MORRIS         CLOUDY    64  52  63 SE15      29.54S
ALEXANDRIA     CLOUDY    63  52  67 SE13      29.60R
ELBOW LAKE     PTSUNNY   63  52  69 E12       29.56S
WADENA         CLOUDY    63  48  59 SE13      29.59S
GLENWOOD       DRIZZLE   63  54  72 SE10      29.59F
APPLETON       LGT RAIN  68  52  56 SE12G17   29.53F
BENSON         CLOUDY    66  52  59 S13G18    29.56F
ORTONVILLE     CLOUDY    64  54  68 SE6       29.53R
MADISON        CLOUDY    66  55  68 S12       29.54R
WILLMAR        CLOUDY    66  52  59 SE12      29.60F
$$
MNZ033>034-036-042>043-049>051-058-059-260100-
   Central Minnesota

CITY           SKY/WX    TMP DP  RH WIND       PRES   REMARKS
ST CLOUD       MOSUNNY   66  50  56 SE12      29.63S
6HR MIN TEMP:  63; 6HR MAX TEMP:  69;

SAUK CENTRE    DRIZZLE   60  53  75 SE12      29.61S
PAYNESVILLE    DRIZZLE   65  48  54 SE9       29.62S
AITKIN         CLOUDY    63  48  59 SE8       29.63S
PINE RIVER     CLOUDY    63  50  63 SE7       29.65F
BRAINERD       PTSUNNY   64  47  53 S10       29.63F
STAPLES        DRIZZLE   61  52  72 SE3       29.61S
LONG PRAIRIE   LGT RAIN  59  52  77 E7        29.62R
LITTLE FALLS   CLOUDY    63  46  55 SE9       29.63S
LITCHFIELD     CLOUDY    68  52  56 SE8       29.62F
BUFFALO        MOSUNNY   67  49  52 SE5       29.66R
MAPLE LAKE     PTSUNNY   67  53  60 SE3       29.65S
HUTCHINSON     CLOUDY    67  53  59 SE10      29.64S
$$
MNZ037-044-045-052-053-260100-
   East Central Minnesota

CITY           SKY/WX    TMP DP  RH WIND       PRES   REMARKS
PRINCETON      CLOUDY    68  50  52 S7        29.65R
MORA           CLOUDY    64  46  52 SE8       29.66S
CAMBRIDGE      CLOUDY    70  52  52 SE7       29.63S
RUSH CITY      CLOUDY    67  51  56 S5        29.66R
MOOSE LAKE     CLOUDY    57  43  58 NE3       29.66R
HINCKLEY       CLOUDY    66  52  59 S6        29.66R
CLOQUET        CLOUDY    55  43  62 E12G17    29.68S
MCGREGOR       CLOUDY    63  50  63 E10       29.65S
$$
MNZ071>073-080-081-089-090-097-098-260100-
   Southwest Minnesota

CITY           SKY/WX    TMP DP  RH WIND       PRES   REMARKS
MONTEVIDEO     DRIZZLE   64  54  68 S9        29.55F
CANBY          LGT RAIN  62  56  79 CALM      29.57R
MARSHALL       LGT RAIN  63  56  78 S8        29.58S
REDWOOD FALLS  LGT RAIN  66  52  60 SE9       29.59S
OLIVIA         LGT RAIN  64  52  63 SE12G17   29.60S
PIPESTONE      CLOUDY    66  48  52 S10       29.58S
WINDOM         CLOUDY    66  52  59 SE8       29.61S
WORTHINGTON    CLOUDY    67  53  61 S5        29.61R
JACKSON        CLOUDY    64  50  59 SE3       29.62S
TRACY          DRIZZLE   65  58  79 CALM      29.60R
SLAYTON        CLOUDY    66  52  60 S7        29.60S
$$
MNZ065>067-074>077-082>085-091>093-260100-
   South Central Minnesota

CITY           SKY/WX    TMP DP  RH WIND       PRES   REMARKS
MANKATO        PTSUNNY   68  52  56 SE10      29.64R
NEW ULM        CLOUDY    66  48  52 SE9       29.62R
ST JAMES       CLOUDY    68  50  52 SE9       29.63R
FAIRMONT       CLOUDY    67  49  52 SE12      29.63R
GLENCOE        MOSUNNY   69  54  59 SE8       29.63S
FARIBAULT      MOSUNNY   68  52  56 S6        29.67R
OWATONNA       SUNNY     68  48  49 S8        29.66R
WASECA         PTSUNNY   64  48  55 S7        29.66R
ALBERT LEA     MOSUNNY   68  52  56 S7        29.66R
$$
MNZ078>079-086>088-094>096-260100-
   Southeast Minnesota

CITY           SKY/WX    TMP DP  RH WIND       PRES   REMARKS
ROCHESTER      SUNNY     66  53  63 SE15      29.66S
6HR MIN TEMP:  63; 6HR MAX TEMP:  69; 6HR PCP: TRACE;

RED WING       SUNNY     72  48  43 S7        29.65R
STANTON        MOSUNNY   69  49  49 S8G16     29.64R
DODGE CENTER   SUNNY     66  48  52 S14       29.66R
WINONA         CLOUDY    70  55  60 SW3       29.66R
AUSTIN         SUNNY     66  50  55 S6        29.66R
PRESTON        SUNNY     67  51  56 S8        29.68R
$$
ABBREVIATIONS USED IN REMARKS
   TC - TEMPERATURES IN CELSIUS
  WCI - WIND CHILL INDEX
   HX - HEAT INDEX
  VSB - VISIBILITY
$$




USA.gov is the U.S. government's official web portal to all federal, state and local government web resources and services.